sat.trackr.live / text

‹ back to catalog

STARLINK-34410

NORAD 64440 · 2025-130C

PAYLOAD ACTIVE UNKNOWN

§ Identity

Operator
Country
US
Launch date
2025-06-18
Launch site
AFETR
Launch vehicle
Mass (kg)
RCS (m²)

Purposes: comms

External: N2YO · Heavens-Above · Gunter

§ Orbital elements

Epoch: 2026-05-25T03:41:28.199040Z

Period
94.10 min
Inclination
53.1577°
Eccentricity
0.0001132
Mean motion
15.30211480 rev/d
Perigee alt
474.4 km
Apogee alt
476.0 km
Semi-major
6,853.3 km
B*
5.5284e-4
RAAN
93.1155°
Arg perigee
87.1259°
Mean anomaly
272.9871°
Rev number
5,241

§ Raw data

STARLINK-344101 64440U 25130C   26145.15379860  .00016056  00000+0  55284-3 0  99902 64440  53.1577  93.1155 0001132  87.1259 272.9871 15.30211480 52414

JSON: /api/v1/satellites/64440 · /tle

For live sub-satellite position, see the globe view (requires WebGL).

§ Visibility from observer

Set your observer location to see the next 7 days of passes ≥ 10°. The values pass through the URL so the page stays shareable.

No JS? Fill the form by hand. The geolocation button needs JavaScript.